Regional Weather Roundup
Issued by NWS

Home | Current Version | Previous Version | Graphics & Text | Print | Product List | Glossary On
Versions: 1 2 3 4 5 6 7 8 9 10 11 12 13 14 15 16 17 18 19 20 21 22 23 24 25 26 27 28 29 30 31 32 33 34 35 36 37 38 39 40 41 42 43 44 45 46 47 48 49 50
336
ASUS43 KDTX 100501
RWRMI
MICHIGAN HOURLY REGIONAL WEATHER ROUNDUP
NATIONAL WEATHER SERVICE DETROIT/PONTIAC MI
1200 AM EST WED FEB 10 2016

NOTE: "FAIR" INDICATES FEW OR NO CLOUDS BELOW 12,000 FEET WITH NO
SIGNIFICANT WEATHER AND/OR OBSTRUCTION TO VISIBILITY.

MIZ047>049-052>055-059>063-066>070-074>076-081>083-100600-
SOUTHEAST LOWER MICHIGAN

CITY           SKY/WX    TMP DP  RH WIND       PRES   REMARKS
ADRIAN         CLOUDY    24  17  74 NW13      29.76R WCI  12
ALMA           FLURRIES  24  16  73 W14       29.74S WCI  11
ANN ARBOR      CLOUDY    24  17  74 W14       29.72S WCI  12
BAD AXE        LGT SNOW  22  19  89 W14G20    29.66R WCI   9
CARO           CLOUDY    23  19  86 W8        29.68S WCI  14
DETROIT CITY   LGT SNOW  25  18  74 W12       29.70S WCI  14
DETROIT        LGT SNOW  25  19  78 W15       29.72S WCI  13
FLINT          CLOUDY    25  14  63 NW14      29.71R WCI  13
GROSSE ILE     LGT SNOW  27  21  80 W10       29.71S WCI  17
HILLSDALE      CLOUDY    22  16  78 W14       29.74S WCI   9
HOWELL         FLURRIES  24  18  79 W12       29.71S WCI  13

CITY           SKY/WX    TMP DP  RH WIND       PRES   REMARKS
JACKSON        CLOUDY    22  15  75 W13       29.74R WCI  10
LAMBERTVILLE   FLURRIES  25  19  80 W9        29.75S WCI  15
LANSING        CLOUDY    22  16  78 NW13      29.75R WCI  10
LAPEER         LGT SNOW  22  19  89 NW12      29.68S WCI  10
MASON          LGT SNOW  22  18  83 W14       29.73S WCI   9
MONROE         CLOUDY    26  20  77 W13       29.73S WCI  15
MT. CLEMENS    FRZ RAIN  25  20  81 W15       29.67R WCI  12
PONTIAC        LGT SNOW  22  18  85 W14       29.68R FOG     WCI   9
PORT HOPE        N/A     23  20  88 NW18G26   29.62R WCI   9
PORT HURON     LGT SNOW  23  21  93 W8        29.66S WCI  14
TRI CITIES     FLURRIES  24  15  68 W12       29.71S WCI  13
MIDLAND        FLURRIES  23  16  74 W7G16     29.71S WCI  14
TROY           CLOUDY    25  20  80 W12G17    29.71S WCI  14
SAGINAW HB     FLURRIES  25  19  80 W12       29.71S WCI  14
$$
MIZ043>046-050>051-056>058-064>065-071>073-077>080-100600-
SOUTHWEST LOWER MICHIGAN

CITY           SKY/WX    TMP DP  RH WIND       PRES   REMARKS
BATTLE CREEK   CLOUDY    22  14  71 NW10      29.77F WCI  11
BENTON HARBOR  LGT SNOW  22  18  85 NW5G18    29.84F FOG     WCI  16
BIG RAPIDS     LGT SNOW  19  17  88 NW5       29.73F WCI  13
COLDWATER      LGT SNOW  22  19  89 W9        29.77S WCI  12
FREMONT        MOCLDY    19  12  76 NW14G20   29.79S WCI   5
HOLLAND        FLURRIES  21  15  78 NW9       29.82F WCI  11
GRAND RAPIDS   FLURRIES  21  14  74 NW16      29.79R WCI   7
IONIA          LGT SNOW  21  17  83 NW10      29.75S WCI  10
KALAMAZOO      LGT SNOW  22  16  78 NW14      29.79S WCI   9
LUDINGTON      LGT SNOW  19  13  77 N14G24    29.82S WCI   6
MARSHALL       FLURRIES  23  15  72 NW13      29.76S WCI  11
MOUNT PLEASANT FLURRIES  23  13  67 NW9       29.72F WCI  13
MUSKEGON       CLOUDY    20  13  74 NW17      29.83S WCI   5
SOUTH HAVEN    CLOUDY    23  16  73 NW12G20   29.82F WCI  12
$$
MIZ016>042-100600-
NORTHERN LOWER MICHIGAN

CITY           SKY/WX    TMP DP  RH WIND       PRES   REMARKS
ALPENA         LGT SNOW  19  15  84 NW8       29.66S FOG     WCI   9
BEAVER ISLAND  LGT SNOW  15   8  72 N13G22    29.78S WCI   1
BELLAIRE       LGT SNOW  18  14  83 N7        29.75S WCI   9
CADILLAC       LGT SNOW  19  14  80 NW12      29.69S WCI   6
CHARLEVOIX     CLOUDY    18  12  79 N21G26    29.78S WCI   1
FRANKFORT      LGT SNOW  20  15  81 N15G22    29.80R WCI   7
GAYLORD        LGT SNOW  14   9  80 NW8       29.67R WCI   3
GRAYLING       LGT SNOW  17  12  78 NW13      29.69R WCI   4
HARBOR SPRINGS FLURRIES  14   6  72 N6        29.74S WCI   5
HOUGHTON LAKE  LGT SNOW  18  13  80 NW7       29.68S WCI   9
MANISTEE       CLOUDY    19  12  73 NW15G25   29.80S WCI   5
OSCODA         LGT SNOW  19  14  81 NW12      29.66R WCI   7
PELLSTON       LGT SNOW  13   8  81 NW18      29.74R WCI  -4
ROGERS CITY    LGT SNOW  18  14  83 N15       29.69R WCI   4
TRAVERSE CITY  LGT SNOW  20  13  74 N16G24    29.75S WCI   6
$$
MIZ007>008-015-100600-
EASTERN UPPER MICHIGAN

CITY           SKY/WX    TMP DP  RH WIND       PRES   REMARKS
KINROSS        CLOUDY     9   7  92 N14G21    29.73S WCI  -8
MACKINAC ISLAN LGT SNOW  13   8  80 N18G25    29.72S WCI  -4
NEWBERRY       CLOUDY    10   6  86 N12G22    29.76S FOG     WCI  -5
S. S. MARIE    FLURRIES   7  -2  66 N9        29.75R WCI  -7
$$
MIZ004>006-011>014-085-100600-
CENTRAL UPPER MICHIGAN

CITY           SKY/WX    TMP DP  RH WIND       PRES   REMARKS
MANISTIQUE     CLOUDY    14   7  76 N12G18    29.80S WCI   0
ESCANABA       CLOUDY    12   7  79 NW14G22   29.86R WCI  -3
MENOMINEE      MOCLDY    12   0  57 NW14G23   29.90S WCI  -3
SAWYER-GWINN   LGT SNOW   8   4  83 NW23G32   29.83R WCI -13
$$
MIZ001>003-009>011-084-100600-
WESTERN UPPER MICHIGAN

CITY           SKY/WX    TMP DP  RH WIND       PRES   REMARKS
IRON MOUNTAIN  CLOUDY     8   1  73 NW14      29.88S BLWGSNOWWCI  -8
HOUGHTON       CLOUDY     6  -1  73 N13       29.95S HAZE    WCI -10
COPPER HARBOR    N/A     13   9  84 N26G38    29.95F WCI  -7
IRONWOOD       CLOUDY     9   1  72 N8        29.97S WCI  -4
$$

ABBREVIATIONS USED IN REMARKS
   TC - TEMPERATURE IN CELSIUS
  WCI - WIND CHILL INDEX
   HX - HEAT INDEX
  VSB - VISIBILITY





USA.gov is the U.S. government's official web portal to all federal, state and local government web resources and services.